Flag for Australia Weather past 2 weeks in Melbourne, Victoria, Australia

Now
43 °F

Passing clouds.


Feels Like: 36 °F
Forecast: 47 / 57 °F
Wind: 13 mph from West

Location: Melbourne Airport

Current Time: Sep 18, 2014 at 4:14:03 AM

Latest Report: Sep 18, 2014 at 3:30 AM


Visibility: N/A

Pressure: 30.09 "Hg

Humidity: 87%

Dew point: 39 °F

Location of MelbourneLocation

Historic Weather in Melbourne — Graph

°F

Melbourne temperature yesterday

Maximum temperature yesterday: 57 °F (at 1:47 PM)
Minimum temperature yesterday: 41 °F (at 11:00 PM)
Average temperature yesterday: 49 °F

Past Weeks' High & Low Weather Summary

 TemperatureHumidityPressure
High68 °F (Sep 8, 1:30 PM)100% (Sep 4, 12:00 AM)30.45 "Hg (Sep 4, 12:00 AM)
Low36 °F (Sep 4, 2:30 AM)32% (Sep 8, 8:00 PM)29.59 "Hg (Sep 9, 2:00 PM)
Average52 °F73%30.08 "Hg
* Reported Sep 3 3:00 AM — Sep 18 3:00 AM, Melbourne, Weather by CustomWeather, © 2014

Note: Actual official high and low records may vary slightly from our data, if they occured in-between our weather recording intervals... More about our weather records

Advertising

Melbourne weather history for previous 24 hours

 ConditionsComfort  
Time TempWeatherWind HumidityBarometerVisibility
3:00 AM
Sep 18
45 °FPassing clouds.14 mph81%30.09 "HgN/A
2:30 AM45 °FPassing clouds.13 mph81%30.09 "HgN/A
2:00 AM45 °FClear.15 mph81%30.09 "Hg10 mi
1:30 AM45 °FPassing clouds.16 mph81%30.09 "HgN/A
1:00 AM45 °FPassing clouds.14 mph81%30.12 "HgN/A
12:30 AM45 °FClear.13 mph81%30.12 "Hg10 mi
12:00 AM43 °FPassing clouds.13 mph87%30.12 "HgN/A
11:30 PM
Sep 17
43 °FClear.13 mph87%30.12 "Hg10 mi
11:00 PM41 °FClear.10 mph93%30.12 "Hg10 mi
10:30 PM43 °FPassing clouds.10 mph87%30.09 "HgN/A
10:00 PM45 °FClear.10 mph81%30.09 "Hg10 mi
9:30 PM43 °FPassing clouds.8 mph87%30.09 "HgN/A
9:00 PM45 °FClear.9 mph81%30.09 "Hg10 mi
8:30 PM45 °FPassing clouds.9 mph81%30.09 "HgN/A
8:00 PM46 °FClear.9 mph71%30.09 "Hg10 mi
7:30 PM46 °FClear.10 mph76%30.07 "Hg10 mi
7:00 PM48 °FPassing clouds.17 mph66%30.07 "HgN/A
6:30 PM48 °FPassing clouds.16 mph66%30.07 "HgN/A
6:00 PM50 °FPartly cloudy.18 mph58%30.04 "HgN/A
5:30 PM50 °FSprinkles. Passing clouds.20 mph62%30.04 "HgN/A
5:00 PM52 °FScattered showers. Scattered clouds.18 mph62%30.01 "HgN/A
4:00 PM52 °FScattered showers. Broken clouds.23 mph67%30.01 "HgN/A
3:30 PM50 °FSprinkles. Broken clouds.20 mph82%29.98 "HgN/A
3:00 PM54 °FScattered showers. Partly sunny.21 mph63%29.98 "HgN/A
2:30 PM52 °FSprinkles. Broken clouds.21 mph67%29.98 "HgN/A
2:00 PM57 °FScattered showers. Broken clouds.25 mph41%29.95 "HgN/A
1:47 PM57 °FBroken clouds.23 mph39%29.95 "HgN/A
1:30 PM55 °FScattered clouds.23 mph44%29.95 "HgN/A
1:00 PM55 °FScattered showers. Scattered clouds.24 mph51%29.95 "HgN/A
12:30 PM52 °FSprinkles. Broken clouds.30 mph77%29.95 "HgN/A
12:00 PM54 °FScattered showers. Scattered clouds.17 mph67%29.95 "HgN/A
11:30 AM54 °FSprinkles. Partly sunny.20 mph72%29.95 "Hg5 mi
11:02 AM52 °FSprinkles. Partly sunny.24 mph77%29.95 "Hg6 mi
10:30 AM55 °FScattered showers. Partly sunny.20 mph55%29.95 "HgN/A
10:00 AM54 °FPartly sunny.20 mph67%29.95 "HgN/A
9:00 AM54 °FScattered clouds.20 mph63%29.95 "HgN/A
8:00 AM52 °FPassing clouds.15 mph67%29.95 "HgN/A
7:30 AM50 °FScattered clouds.13 mph71%29.92 "HgN/A
7:00 AM48 °FScattered clouds.14 mph76%29.92 "HgN/A
6:30 AM48 °FPartly sunny.13 mph76%29.92 "HgN/A
6:00 AM48 °FPartly sunny.17 mph76%29.92 "HgN/A
5:30 AM50 °FPartly sunny.16 mph76%29.92 "HgN/A
5:00 AM48 °FPassing clouds.10 mph87%29.92 "HgN/A
4:00 AM46 °FPassing clouds.9 mph87%29.89 "HgN/A
Weather by CustomWeather, © 2014

See weather overviewHow to use our weather pages